Regional Weather Roundup
Issued by NWS

Home | Current Version | Previous Version | Graphics & Text | Print | Product List | Glossary On
Versions: 1 2 3 4 5 6 7 8 9 10 11 12 13 14 15 16 17 18 19 20 21 22 23 24 25 26 27 28 29 30 31 32 33 34 35 36 37 38 39 40 41 42 43 44 45 46 47 48 49 50
000
ASUS43 KLOT 240212
RWRIL

ILLINOIS REGIONAL WEATHER ROUNDUP
NATIONAL WEATHER SERVICE CHICAGO/ROMEOVILLE IL
800 PM CST MON JAN 23 2017

NOTE: "FAIR" INDICATES FEW OR NO CLOUDS BELOW 12,000 FEET WITH NO
SIGNIFICANT WEATHER AND/OR OBSTRUCTIONS TO VISIBILITY.

* THESE STATIONS ARE NOT UNDER NWS QUALITY CONTROL. THEY ALSO MAY NOT
  REPORT WEATHER SUCH AS PRECIPITATION OR FOG.

ILZ001-002-007-009-015-016-024-240300-
NORTHWEST ILLINOIS

CITY           SKY/WX    TMP DP  RH WIND       PRES   REMARKS
MOLINE         CLOUDY    37  32  82 W8        29.84F WCI  31
STERLING*      CLOUDY    37  34  89 W5        29.85R WCI  33
SAVANNA*       CLOUDY    37  34  91 W3        29.85R
$$

ILZ003-004-008-010-011-017-018-240300-
NORTH CENTRAL ILLINOIS

CITY           SKY/WX    TMP DP  RH WIND       PRES   REMARKS
ROCKFORD       CLOUDY    39  34  82 NW8       29.84R WCI  33
FREEPORT*      CLOUDY    36  34  92 NW5       29.84S WCI  32
ROCHELLE*      CLOUDY    37  34  90 NW3       29.83R
DE KALB*       CLOUDY    38  36  94 NW7       29.82R WCI  32
PERU*          CLOUDY    37  33  89 NW8       29.84R WCI  30
$$

ILZ005-006-012>014-019>023-240300-
NORTHEAST ILLINOIS

CITY           SKY/WX    TMP DP  RH WIND       PRES   REMARKS
CHICAGO-OHARE  MOCLDY    38  34  85 NW7       29.79R WCI  33
CHICAGO-MIDWAY CLOUDY    41  34  76 NW8       29.80R
AURORA         CLOUDY    38  36  92 W6        29.82R WCI  33
LANSING*       CLOUDY    40  37  86 N3        29.80R
JOLIET*        CLOUDY    42  36  79 N5        29.82R
WAUKEGAN       CLOUDY    37  34  89 NW7       29.80R WCI  32
DUPAGE AIRPORT CLOUDY    39  34  82 NW3       29.80R
KANKAKEE*      CLOUDY    40  35  82 NW7       29.82R
WHEELING       CLEAR     37  33  85 NW6       29.81R WCI  32
MORRIS*        CLOUDY    38  36  92 CALM      29.81R
ROMEOVILLE*    CLOUDY    40  37  88 N8        29.81R
NORTHERLY ISL    N/A     40  35  83 NE5         N/A
$$

LMZ740>746-240300-
SOUTHERN LAKE MICHIGAN

STATION/POSITION SKY/WX   TEMP    WIND        PRES    VSBY  WAVE
                          AIR SEA DIR/SP/G                  HT/PER
                          (F)     (DEG/KT/KT) (MB)    (MI)  (FT/S)
HARRISON CRIB              38     350/ 10/ 11   N/A
BURNHAM HARBOR             39     330/  4/  7   N/A
CALUMET HARBOR             38     320/  4/  6 1008.4R
BURNS HARBOR               35      40/  4/  5 1009.5R
MICHIGAN CITY              37     350/  9/ 10   N/A
$$

ILZ025>027-034>036-040-047-049-050-058-095>099-240300-
WEST-CENTRAL ILLINOIS

CITY           SKY/WX    TMP DP  RH WIND       PRES   REMARKS
QUINCY         CLOUDY    35  31  85 NW5       29.85F WCI  31
GALESBURG*     CLOUDY    34  32  92 W7        29.85F WCI  28
MACOMB*        CLOUDY    36  33  89 NW6       29.88S WCI  31
JACKSONVILLE*  CLOUDY    37  32  81 W7        29.86S WCI  32
PITTSFIELD*    CLOUDY    37  32  84 W5        29.87F WCI  33
$$

ILZ028>032-037-038-041>044-048-051>054-059>061-240300-
CENTRAL ILLINOIS

CITY           SKY/WX    TMP DP  RH WIND       PRES   REMARKS
PONTIAC        CLOUDY    40  40  99 NW5       29.84R
BLOOMINGTON    CLOUDY    39  35  86 NW8       29.83R WCI  33
DECATUR        CLOUDY    40  36  86 N7        29.83S
PEORIA         CLOUDY    39  35  86 NW6       29.85R WCI  35
LACON*         CLOUDY    38  36  92 NW6       29.84R WCI  33
LINCOLN*       CLOUDY    41  37  84 W7        29.84R
SPRINGFIELD    CLOUDY    41  35  79 NW7       29.85R
TAYLORVILLE    CLOUDY    39  33  80 NW8       29.85R WCI  34
$$

ILZ033-039-045-046-055>057-062-063-240300-
EAST-CENTRAL ILLINOIS

CITY           SKY/WX    TMP DP  RH WIND       PRES   REMARKS
CHAMPAIGN      CLOUDY    39  35  86 NW8       29.82R WCI  33
RANTOUL*       CLOUDY    41  38  88 NW7       29.82R
MATTOON        CLOUDY    39  36  89 N13       29.82R WCI  31
PARIS*         CLOUDY    39  35  87 N9        29.82R WCI  32
$$

ILZ079-100>102-240300-
SOUTHWEST ILLINOIS

CITY           SKY/WX    TMP DP  RH WIND       PRES   REMARKS
ALTON          CLOUDY    39  32  75 NW7       29.86R WCI  34
BELLEVILLE     CLOUDY    41  34  75 NW9       29.85R
CAHOKIA*       CLOUDY    42  32  67 NW10      29.86R
SPARTA*        CLOUDY    40  33  76 NW3       29.88R
$$

ILZ064>066-069>071-074>076-080>082-084>086-088>090-092>094-240300-
SOUTH-CENTRAL ILLINOIS

CITY           SKY/WX    TMP DP  RH WIND       PRES   REMARKS
CARBONDALE     CLOUDY    41  35  79 N7        29.86S
CAIRO*         CLOUDY    43  36  76 NW8       29.86R
EFFINGHAM*     CLOUDY    41  37  83 NW7       29.84S
MARION         CLOUDY    43  36  75 NW5       29.87R
MT. VERNON     CLOUDY    41  35  79 VRB3      29.85R
CENTRALIA*     CLOUDY    41  36  81 NW7       29.84R
SALEM*         CLOUDY    42  35  77 NW7       29.84S
METROPOLIS*    CLOUDY    42  36  77 CALM      29.86S
$$

ILZ067-068-072-073-078-083-087-091-240300-
SOUTHEAST ILLINOIS

CITY           SKY/WX    TMP DP  RH WIND       PRES   REMARKS
LAWRENCEVILLE  CLOUDY    41  37  86 N17       29.82S
FLORA*         CLOUDY    43  36  75 NW12      29.84S
FAIRFIELD*     CLOUDY    42  35  75 NW6       29.84R
HARRISBURG*    CLOUDY    42  36  78 NW12      29.85S
ROBINSON*      CLOUDY    39  35  86 N12G18    29.83S WCI  31
CARMI*         CLOUDY    42  36  80 NW8       29.84S
$$

ABBREVIATIONS USED IN REMARKS
   TC - TEMPERATURE IN CELSIUS
  WCI - WIND CHILL INDEX
   HX - HEAT INDEX
  VSB - VISIBILITY
$$




USA.gov is the U.S. government's official web portal to all federal, state and local government web resources and services.